Time,TemperatureF,DewpointF,PressureIn,WindDirection,WindDirectionDegrees,WindSpeedMPH,WindSpeedGustMPH,Humidity,HourlyPrecipIn,Conditions,Clouds,dailyrainin,SoftwareType,DateUTC
2013-05-12 00:02:00,44.0,16.0,-100.00,WNW,295,6.0,7.0,32,-99.99,,,-99.99,,2013-05-12 05:02:00,
2013-05-12 00:11:00,44.0,17.0,-100.00,WNW,290,6.0,7.0,33,-99.99,,,-99.99,,2013-05-12 05:11:00,
2013-05-12 00:22:00,43.0,17.0,-100.00,WNW,290,6.0,6.0,35,-99.99,,,-99.99,,2013-05-12 05:22:00,
2013-05-12 00:32:00,42.0,19.0,-100.00,WNW,285,6.0,6.0,39,-99.99,,,-99.99,,2013-05-12 05:32:00,
2013-05-12 00:42:00,42.0,19.0,-100.00,WNW,285,6.0,6.0,39,-99.99,,,-99.99,,2013-05-12 05:42:00,
2013-05-12 00:51:00,42.0,20.0,-100.00,WNW,290,6.0,7.0,41,-99.99,,,-99.99,,2013-05-12 05:51:00,
2013-05-12 01:01:00,42.0,20.0,-100.00,WNW,290,6.0,7.0,41,-99.99,,,-99.99,,2013-05-12 06:01:00,
2013-05-12 01:11:00,41.0,20.0,-100.00,NW,310,5.0,6.0,43,-99.99,,,-99.99,,2013-05-12 06:11:00,
2013-05-12 01:21:00,41.0,20.0,-100.00,WNW,290,4.0,6.0,43,-99.99,,,-99.99,,2013-05-12 06:21:00,
2013-05-12 01:32:00,41.0,20.0,-100.00,WNW,300,6.0,7.0,44,-99.99,,,-99.99,,2013-05-12 06:32:00,
2013-05-12 01:42:00,41.0,20.0,-100.00,WNW,300,6.0,7.0,44,-99.99,,,-99.99,,2013-05-12 06:42:00,
2013-05-12 01:51:00,41.0,21.0,-100.00,WNW,290,6.0,6.0,46,-99.99,,,-99.99,,2013-05-12 06:51:00,
2013-05-12 02:01:00,41.0,21.0,-100.00,WNW,290,6.0,6.0,46,-99.99,,,-99.99,,2013-05-12 07:01:00,
2013-05-12 02:11:00,40.0,22.0,-100.00,WNW,285,6.0,6.0,48,-99.99,,,-99.99,,2013-05-12 07:11:00,
2013-05-12 02:21:00,40.0,22.0,-100.00,WNW,285,6.0,7.0,49,-99.99,,,-99.99,,2013-05-12 07:21:00,
2013-05-12 02:32:00,40.0,23.0,-100.00,WNW,285,7.0,8.0,52,-99.99,,,-99.99,,2013-05-12 07:32:00,
2013-05-12 02:42:00,40.0,23.0,-100.00,WNW,285,7.0,8.0,52,-99.99,,,-99.99,,2013-05-12 07:42:00,
2013-05-12 02:52:00,39.0,24.0,-100.00,WNW,290,6.0,6.0,54,-99.99,,,-99.99,,2013-05-12 07:52:00,
2013-05-12 03:02:00,39.0,24.0,-100.00,WNW,290,6.0,6.0,54,-99.99,,,-99.99,,2013-05-12 08:02:00,
2013-05-12 03:11:00,39.0,24.0,-100.00,West,280,6.0,6.0,54,-99.99,,,-99.99,,2013-05-12 08:11:00,
2013-05-12 03:21:00,39.0,24.0,-100.00,WNW,295,6.0,7.0,54,-99.99,,,-99.99,,2013-05-12 08:21:00,
2013-05-12 03:32:00,39.0,23.0,-100.00,WNW,290,6.0,7.0,54,-99.99,,,-99.99,,2013-05-12 08:32:00,
2013-05-12 03:41:00,39.0,23.0,-100.00,WNW,290,6.0,7.0,54,-99.99,,,-99.99,,2013-05-12 08:41:00,
2013-05-12 03:52:00,38.0,24.0,-100.00,WNW,300,6.0,6.0,57,-99.99,,,-99.99,,2013-05-12 08:52:00,
2013-05-12 04:01:00,38.0,24.0,-100.00,WNW,300,6.0,6.0,57,-99.99,,,-99.99,,2013-05-12 09:01:00,
2013-05-12 04:11:00,38.0,24.0,-100.00,WNW,300,6.0,6.0,57,-99.99,,,-99.99,,2013-05-12 09:11:00,
2013-05-12 04:21:00,38.0,24.0,-100.00,WNW,290,7.0,9.0,57,-99.99,,,-99.99,,2013-05-12 09:21:00,
2013-05-12 04:33:00,38.0,24.0,-100.00,WNW,285,4.0,6.0,58,-99.99,,,-99.99,,2013-05-12 09:33:00,
2013-05-12 04:42:00,38.0,24.0,-100.00,WNW,285,4.0,6.0,58,-99.99,,,-99.99,,2013-05-12 09:42:00,
2013-05-12 04:53:00,37.0,24.0,-100.00,WNW,300,6.0,7.0,59,-99.99,,,-99.99,,2013-05-12 09:53:00,
2013-05-12 05:03:00,37.0,24.0,-100.00,WNW,300,6.0,7.0,59,-99.99,,,-99.99,,2013-05-12 10:03:00,
2013-05-12 05:12:00,37.0,24.0,-100.00,WNW,295,6.0,7.0,60,-99.99,,,-99.99,,2013-05-12 10:12:00,
2013-05-12 05:22:00,37.0,25.0,-100.00,WNW,295,6.0,6.0,61,-99.99,,,-99.99,,2013-05-12 10:22:00,
2013-05-12 05:33:00,37.0,24.0,-100.00,WNW,290,6.0,6.0,61,-99.99,,,-99.99,,2013-05-12 10:33:00,
2013-05-12 05:42:00,37.0,24.0,-100.00,WNW,290,6.0,6.0,61,-99.99,,,-99.99,,2013-05-12 10:42:00,
2013-05-12 05:52:00,36.0,24.0,-100.00,WNW,290,6.0,6.0,62,-99.99,,,-99.99,,2013-05-12 10:52:00,
2013-05-12 06:02:00,36.0,24.0,-100.00,WNW,290,6.0,6.0,62,-99.99,,,-99.99,,2013-05-12 11:02:00,
2013-05-12 06:12:00,36.0,24.0,-100.00,West,280,5.0,7.0,62,-99.99,,,-99.99,,2013-05-12 11:12:00,
2013-05-12 06:21:00,36.0,24.0,-100.00,West,275,6.0,6.0,61,-99.99,,,-99.99,,2013-05-12 11:21:00,
2013-05-12 06:32:00,37.0,24.0,-100.00,West,280,5.0,6.0,59,-99.99,,,-99.99,,2013-05-12 11:32:00,
2013-05-12 06:42:00,37.0,24.0,-100.00,West,280,5.0,6.0,59,-99.99,,,-99.99,,2013-05-12 11:42:00,
2013-05-12 06:51:00,38.0,24.0,-100.00,West,280,5.0,6.0,58,-99.99,,,-99.99,,2013-05-12 11:51:00,
2013-05-12 07:01:00,38.0,24.0,-100.00,West,280,5.0,6.0,58,-99.99,,,-99.99,,2013-05-12 12:01:00,
2013-05-12 07:11:00,38.0,24.0,-100.00,West,270,6.0,7.0,57,-99.99,,,-99.99,,2013-05-12 12:11:00,
2013-05-12 07:21:00,39.0,24.0,-100.00,West,265,6.0,7.0,55,-99.99,,,-99.99,,2013-05-12 12:21:00,
2013-05-12 07:32:00,39.0,25.0,-100.00,West,275,5.0,7.0,56,-99.99,,,-99.99,,2013-05-12 12:32:00,
2013-05-12 07:41:00,39.0,25.0,-100.00,West,275,5.0,7.0,56,-99.99,,,-99.99,,2013-05-12 12:41:00,
2013-05-12 07:51:00,41.0,26.0,-100.00,WNW,295,7.0,9.0,54,-99.99,,,-99.99,,2013-05-12 12:51:00,
2013-05-12 08:01:00,41.0,26.0,-100.00,WNW,295,7.0,9.0,54,-99.99,,,-99.99,,2013-05-12 13:01:00,
2013-05-12 08:11:00,42.0,26.0,-100.00,NW,305,7.0,8.0,52,-99.99,,,-99.99,,2013-05-12 13:11:00,
2013-05-12 08:21:00,43.0,26.0,-100.00,NW,305,6.0,7.0,50,-99.99,,,-99.99,,2013-05-12 13:21:00,
2013-05-12 08:32:00,44.0,25.0,-100.00,WNW,300,7.0,9.0,47,-99.99,,,-99.99,,2013-05-12 13:32:00,
2013-05-12 08:41:00,44.0,25.0,-100.00,WNW,300,7.0,9.0,47,-99.99,,,-99.99,,2013-05-12 13:41:00,
2013-05-12 08:52:00,47.0,26.0,-100.00,NW,310,6.0,7.0,44,-99.99,,,-99.99,,2013-05-12 13:52:00,
2013-05-12 09:01:00,47.0,26.0,-100.00,NW,310,6.0,7.0,44,-99.99,,,-99.99,,2013-05-12 14:01:00,
2013-05-12 09:11:00,46.0,24.0,-100.00,NNW,345,9.0,10.0,43,-99.99,,,-99.99,,2013-05-12 14:11:00,
2013-05-12 09:21:00,47.0,25.0,-100.00,NW,320,8.0,9.0,42,-99.99,,,-99.99,,2013-05-12 14:21:00,
2013-05-12 09:31:00,48.0,24.0,-100.00,WNW,290,7.0,9.0,40,-99.99,,,-99.99,,2013-05-12 14:31:00,
2013-05-12 09:42:00,48.0,24.0,-100.00,WNW,290,7.0,9.0,40,-99.99,,,-99.99,,2013-05-12 14:42:00,
2013-05-12 09:52:00,49.0,24.0,-100.00,NW,315,8.0,10.0,38,-99.99,,,-99.99,,2013-05-12 14:52:00,
2013-05-12 10:01:00,49.0,24.0,-100.00,NW,315,8.0,10.0,38,-99.99,,,-99.99,,2013-05-12 15:01:00,
2013-05-12 10:11:00,50.0,23.0,-100.00,NNW,335,11.0,14.0,35,-99.99,,,-99.99,,2013-05-12 15:11:00,
2013-05-12 10:21:00,50.0,22.0,-100.00,NW,310,11.0,13.0,33,-99.99,,,-99.99,,2013-05-12 15:21:00,
2013-05-12 10:34:00,50.0,20.0,-100.00,NNW,330,12.0,15.0,30,-99.99,,,-99.99,,2013-05-12 15:34:00,
2013-05-12 10:42:00,50.0,20.0,-100.00,NNW,330,12.0,15.0,30,-99.99,,,-99.99,,2013-05-12 15:42:00,
2013-05-12 10:52:00,51.0,19.0,-100.00,NNW,335,17.0,19.0,29,-99.99,,,-99.99,,2013-05-12 15:52:00,
2013-05-12 11:02:00,51.0,19.0,-100.00,NNW,335,17.0,19.0,29,-99.99,,,-99.99,,2013-05-12 16:02:00,
2013-05-12 11:12:00,51.0,20.0,-100.00,NNW,330,12.0,14.0,29,-99.99,,,-99.99,,2013-05-12 16:12:00,
2013-05-12 11:23:00,52.0,19.0,-100.00,North,355,17.0,19.0,28,-99.99,,,-99.99,,2013-05-12 16:23:00,
2013-05-12 11:33:00,52.0,20.0,-100.00,NW,325,12.0,15.0,28,-99.99,,,-99.99,,2013-05-12 16:33:00,
2013-05-12 11:42:00,52.0,20.0,-100.00,NW,325,12.0,15.0,28,-99.99,,,-99.99,,2013-05-12 16:42:00,
2013-05-12 11:52:00,52.0,19.0,-100.00,WNW,300,18.0,22.0,27,-99.99,,,-99.99,,2013-05-12 16:52:00,
2013-05-12 12:02:00,52.0,19.0,-100.00,WNW,300,18.0,22.0,27,-99.99,,,-99.99,,2013-05-12 17:02:00,
2013-05-12 12:11:00,54.0,22.0,-100.00,North,350,11.0,14.0,28,-99.99,,,-99.99,,2013-05-12 17:11:00,
2013-05-12 12:22:00,54.0,20.0,-100.00,NW,305,16.0,19.0,27,-99.99,,,-99.99,,2013-05-12 17:22:00,
2013-05-12 12:32:00,54.0,20.0,-100.00,NW,320,14.0,17.0,26,-99.99,,,-99.99,,2013-05-12 17:32:00,
2013-05-12 12:42:00,54.0,20.0,-100.00,NW,320,14.0,17.0,26,-99.99,,,-99.99,,2013-05-12 17:42:00,
2013-05-12 12:52:00,54.0,20.0,-100.00,NNW,335,12.0,14.0,26,-99.99,,,-99.99,,2013-05-12 17:52:00,
2013-05-12 13:01:00,54.0,20.0,-100.00,NNW,335,12.0,14.0,26,-99.99,,,-99.99,,2013-05-12 18:01:00,
2013-05-12 13:12:00,55.0,20.0,-100.00,NW,315,12.0,17.0,25,-99.99,,,-99.99,,2013-05-12 18:12:00,
2013-05-12 13:22:00,55.0,20.0,-100.00,WNW,290,9.0,12.0,25,-99.99,,,-99.99,,2013-05-12 18:22:00,
2013-05-12 13:32:00,55.0,20.0,-100.00,NW,315,16.0,21.0,25,-99.99,,,-99.99,,2013-05-12 18:32:00,
2013-05-12 13:41:00,55.0,20.0,-100.00,NW,315,16.0,21.0,25,-99.99,,,-99.99,,2013-05-12 18:41:00,
2013-05-12 13:51:00,56.0,19.0,-100.00,WNW,285,7.0,9.0,24,-99.99,,,-99.99,,2013-05-12 18:51:00,
2013-05-12 14:01:00,56.0,19.0,-100.00,WNW,285,7.0,9.0,24,-99.99,,,-99.99,,2013-05-12 19:01:00,
2013-05-12 14:11:00,57.0,20.0,-100.00,North,350,11.0,12.0,24,-99.99,,,-99.99,,2013-05-12 19:11:00,
2013-05-12 14:21:00,57.0,20.0,-100.00,North,350,16.0,19.0,24,-99.99,,,-99.99,,2013-05-12 19:21:00,
2013-05-12 14:32:00,57.0,20.0,-100.00,NNW,335,9.0,11.0,24,-99.99,,,-99.99,,2013-05-12 19:32:00,
2013-05-12 14:42:00,57.0,20.0,-100.00,NNW,335,9.0,11.0,24,-99.99,,,-99.99,,2013-05-12 19:42:00,
2013-05-12 14:52:00,59.0,22.0,-100.00,NW,325,12.0,16.0,24,-99.99,,,-99.99,,2013-05-12 19:52:00,
2013-05-12 15:02:00,59.0,22.0,-100.00,NW,325,12.0,16.0,24,-99.99,,,-99.99,,2013-05-12 20:02:00,
2013-05-12 15:11:00,59.0,21.0,-100.00,WNW,285,7.0,11.0,23,-99.99,,,-99.99,,2013-05-12 20:11:00,
2013-05-12 15:21:00,59.0,21.0,-100.00,WNW,300,11.0,13.0,23,-99.99,,,-99.99,,2013-05-12 20:21:00,
2013-05-12 15:32:00,59.0,20.0,-100.00,West,275,7.0,11.0,22,-99.99,,,-99.99,,2013-05-12 20:32:00,
2013-05-12 15:42:00,59.0,20.0,-100.00,West,275,7.0,11.0,22,-99.99,,,-99.99,,2013-05-12 20:42:00,
2013-05-12 15:51:00,60.0,21.0,-100.00,West,260,11.0,17.0,22,-99.99,,,-99.99,,2013-05-12 20:51:00,
2013-05-12 16:01:00,60.0,21.0,-100.00,West,260,11.0,17.0,22,-99.99,,,-99.99,,2013-05-12 21:01:00,
2013-05-12 16:11:00,60.0,21.0,-100.00,West,275,9.0,14.0,22,-99.99,,,-99.99,,2013-05-12 21:11:00,
2013-05-12 16:21:00,60.0,21.0,-100.00,West,280,5.0,7.0,22,-99.99,,,-99.99,,2013-05-12 21:21:00,
2013-05-12 16:33:00,61.0,21.0,-100.00,NW,320,11.0,13.0,21,-99.99,,,-99.99,,2013-05-12 21:33:00,
2013-05-12 16:42:00,61.0,21.0,-100.00,NW,320,11.0,13.0,21,-99.99,,,-99.99,,2013-05-12 21:42:00,
2013-05-12 16:52:00,62.0,21.0,-100.00,North,0,12.0,14.0,21,-99.99,,,-99.99,,2013-05-12 21:52:00,
2013-05-12 17:02:00,62.0,21.0,-100.00,North,0,12.0,14.0,21,-99.99,,,-99.99,,2013-05-12 22:02:00,
2013-05-12 17:12:00,62.0,22.0,-100.00,NNW,345,5.0,6.0,21,-99.99,,,-99.99,,2013-05-12 22:12:00,
2013-05-12 17:23:00,61.0,20.0,-100.00,WSW,255,10.0,16.0,21,-99.99,,,-99.99,,2013-05-12 22:23:00,
2013-05-12 17:33:00,60.0,19.0,-100.00,West,280,7.0,9.0,20,-99.99,,,-99.99,,2013-05-12 22:33:00,
2013-05-12 17:42:00,60.0,19.0,-100.00,West,280,7.0,9.0,20,-99.99,,,-99.99,,2013-05-12 22:42:00,
2013-05-12 17:52:00,61.0,19.0,-100.00,West,270,7.0,11.0,20,-99.99,,,-99.99,,2013-05-12 22:52:00,
2013-05-12 18:02:00,61.0,19.0,-100.00,West,270,7.0,11.0,20,-99.99,,,-99.99,,2013-05-12 23:02:00,
2013-05-12 18:12:00,62.0,20.0,-100.00,NW,325,10.0,12.0,20,-99.99,,,-99.99,,2013-05-12 23:12:00,
2013-05-12 18:22:00,61.0,20.0,-100.00,NW,320,7.0,7.0,20,-99.99,,,-99.99,,2013-05-12 23:22:00,
2013-05-12 18:32:00,61.0,20.0,-100.00,WNW,285,6.0,8.0,20,-99.99,,,-99.99,,2013-05-12 23:32:00,
2013-05-12 18:42:00,61.0,20.0,-100.00,WNW,285,6.0,8.0,20,-99.99,,,-99.99,,2013-05-12 23:42:00,
2013-05-12 18:52:00,61.0,20.0,-100.00,NNW,335,6.0,6.0,20,-99.99,,,-99.99,,2013-05-12 23:52:00,
2013-05-12 19:01:00,61.0,20.0,-100.00,NNW,335,6.0,6.0,20,-99.99,,,-99.99,,2013-05-13 00:01:00,
2013-05-12 19:11:00,60.0,18.0,-100.00,WNW,295,14.0,15.0,19,-99.99,,,-99.99,,2013-05-13 00:11:00,
2013-05-12 19:21:00,61.0,18.0,-100.00,NW,310,8.0,9.0,19,-99.99,,,-99.99,,2013-05-13 00:21:00,
2013-05-12 19:32:00,60.0,18.0,-100.00,NW,310,7.0,11.0,19,-99.99,,,-99.99,,2013-05-13 00:32:00,
2013-05-12 19:41:00,60.0,18.0,-100.00,NW,310,7.0,11.0,19,-99.99,,,-99.99,,2013-05-13 00:41:00,
2013-05-12 19:51:00,60.0,18.0,-100.00,NW,310,5.0,6.0,20,-99.99,,,-99.99,,2013-05-13 00:51:00,
2013-05-12 20:01:00,60.0,18.0,-100.00,NW,310,5.0,6.0,20,-99.99,,,-99.99,,2013-05-13 01:01:00,
2013-05-12 20:11:00,59.0,18.0,-100.00,WNW,300,5.0,6.0,20,-99.99,,,-99.99,,2013-05-13 01:11:00,
2013-05-12 20:22:00,58.0,17.0,-100.00,West,275,3.0,3.0,20,-99.99,,,-99.99,,2013-05-13 01:22:00,
2013-05-12 20:31:00,58.0,17.0,-100.00,West,270,2.0,3.0,20,-99.99,,,-99.99,,2013-05-13 01:31:00,
2013-05-12 20:41:00,58.0,17.0,-100.00,West,270,2.0,3.0,20,-99.99,,,-99.99,,2013-05-13 01:41:00,
2013-05-12 20:52:00,57.0,16.0,-100.00,West,260,3.0,4.0,20,-99.99,,,-99.99,,2013-05-13 01:52:00,
2013-05-12 21:01:00,57.0,16.0,-100.00,West,260,3.0,4.0,20,-99.99,,,-99.99,,2013-05-13 02:01:00,
2013-05-12 21:11:00,56.0,17.0,-100.00,WSW,240,2.0,3.0,21,-99.99,,,-99.99,,2013-05-13 02:11:00,
2013-05-12 21:21:00,56.0,17.0,-100.00,SW,225,4.0,5.0,21,-99.99,,,-99.99,,2013-05-13 02:21:00,
2013-05-12 21:32:00,53.0,16.0,-100.00,SW,230,1.0,1.0,23,-99.99,,,-99.99,,2013-05-13 02:32:00,
2013-05-12 21:41:00,53.0,16.0,-100.00,SW,230,1.0,1.0,23,-99.99,,,-99.99,,2013-05-13 02:41:00,
2013-05-12 21:51:00,51.0,20.0,-100.00,West,265,0.0,0.0,30,-99.99,,,-99.99,,2013-05-13 02:51:00,
2013-05-12 22:02:00,51.0,20.0,-100.00,West,265,0.0,0.0,30,-99.99,,,-99.99,,2013-05-13 03:02:00,
2013-05-12 22:11:00,50.0,21.0,-100.00,NW,325,0.0,0.0,32,-99.99,,,-99.99,,2013-05-13 03:11:00,
2013-05-12 22:21:00,49.0,22.0,-100.00,WNW,300,0.0,0.0,35,-99.99,,,-99.99,,2013-05-13 03:21:00,
2013-05-12 22:32:00,48.0,26.0,-100.00,West,260,0.0,0.0,41,-99.99,,,-99.99,,2013-05-13 03:32:00,
2013-05-12 22:42:00,48.0,26.0,-100.00,West,260,0.0,0.0,41,-99.99,,,-99.99,,2013-05-13 03:42:00,
2013-05-12 22:52:00,47.0,25.0,-100.00,NW,310,1.0,1.0,42,-99.99,,,-99.99,,2013-05-13 03:52:00,
2013-05-12 23:02:00,47.0,25.0,-100.00,NW,310,1.0,1.0,42,-99.99,,,-99.99,,2013-05-13 04:02:00,
2013-05-12 23:12:00,47.0,27.0,-100.00,NNW,335,1.0,1.0,46,-99.99,,,-99.99,,2013-05-13 04:12:00,
2013-05-12 23:23:00,46.0,29.0,-100.00,NNW,335,0.0,0.0,52,-99.99,,,-99.99,,2013-05-13 04:23:00,
2013-05-12 23:32:00,46.0,32.0,-100.00,WSW,250,0.0,0.0,58,-99.99,,,-99.99,,2013-05-13 04:32:00,
2013-05-12 23:41:00,46.0,32.0,-100.00,WSW,250,0.0,0.0,58,-99.99,,,-99.99,,2013-05-13 04:41:00,
2013-05-12 23:52:00,45.0,31.0,-100.00,North,0,1.0,2.0,60,-99.99,,,-99.99,,2013-05-13 04:52:00,